Wind_Speed
44 43 42 40 39 40 41 40 39 37 37 36 35 35 33 31 29 26 25 22 19 17 14 13 11 11 10 10 11 12 14 16 18 20 22 24 26 27
48 48 47 44 42 41 41 41 41 40 39 38 37 37 36 34 31 29 27 25 22 19 16 15 13 12 11 11 11 12 13 15 16 18 20 22 24 26
53 52 52 50 47 45 44 43 43 42 42 41 40 38 38 36 34 32 30 27 24 21 19 16 14 14 13 12 12 12 13 14 16 18 19 21 22 24
57 57 57 56 53 51 48 45 45 45 44 43 42 40 40 39 37 35 32 30 27 24 21 18 16 14 14 13 13 13 13 15 16 17 19 20 22 23
62 61 61 61 60 57 54 51 48 47 46 46 44 43 42 41 40 38 35 32 29 26 24 21 18 16 15 14 14 14 14 15 16 17 19 20 22 23
63 63 64 64 64 63 60 57 54 51 48 48 47 46 44 43 42 40 38 35 33 30 26 23 20 18 16 15 15 15 15 15 16 17 18 19 20 22
61 61 65 67 67 67 66 62 60 57 54 51 49 48 47 45 43 42 41 39 36 33 29 26 22 20 18 16 15 15 15 15 16 17 18 18 19 21
59 59 61 66 68 69 69 67 64 61 58 55 52 51 49 47 45 44 43 42 39 36 32 28 25 22 20 18 17 16 16 16 17 17 17 18 19 19
55 57 58 60 64 68 70 70 68 65 62 59 55 52 49 49 48 46 45 44 42 39 35 31 28 25 22 20 19 17 17 17 17 18 18 19 19 20
50 52 54 56 59 63 66 68 68 67 64 61 58 55 52 50 49 48 47 45 44 41 37 34 30 27 24 22 20 19 18 17 18 18 19 19 19 19
42 46 48 50 53 57 60 63 65 65 64 62 61 58 54 51 49 49 47 45 44 42 39 36 33 29 26 24 22 20 19 18 18 19 19 19 20 20
35 40 44 45 47 50 53 56 60 62 62 61 60 61 57 51 48 49 47 45 45 43 40 38 35 32 28 26 23 21 20 19 19 19 20 20 20 21
30 34 38 41 43 45 47 50 54 57 60 61 60 60 58 55 51 48 47 46 44 43 42 40 37 33 30 28 25 22 20 19 19 19 19 19 20 20
25 29 32 35 38 40 42 45 48 52 55 57 59 59 57 54 51 49 46 45 45 43 43 42 38 35 32 30 27 24 21 20 19 19 19 19 19 19
21 24 27 30 33 35 38 41 44 47 50 53 55 56 55 55 55 51 46 44 44 44 43 42 40 36 33 31 28 25 22 20 20 19 19 19 19 20
19 21 24 27 28 30 33 37 40 42 45 48 50 52 53 54 54 52 49 46 43 42 44 43 41 38 34 32 29 26 23 21 20 19 19 19 19 20
17 18 20 23 25 27 29 31 35 37 40 44 47 49 50 51 51 50 49 45 41 40 42 42 41 39 35 32 29 26 24 22 20 20 19 19 19 19
16 17 18 20 22 24 26 27 30 34 36 39 42 45 49 50 50 50 47 42 40 40 40 40 40 38 35 32 28 25 23 22 20 20 20 19 19 19
15 16 17 19 22 23 24 25 27 30 33 36 39 42 46 48 49 49 47 43 40 38 37 37 37 35 33 30 28 26 24 22 21 20 20 20 19 19
13 14 16 18 20 21 22 23 24 27 30 33 37 41 43 45 45 46 46 44 42 40 37 36 35 33 31 30 28 27 25 23 22 21 20 19 18 18
11 12 14 15 18 19 20 21 22 24 27 31 35 39 43 44 44 44 44 43 42 40 37 35 34 33 32 31 29 26 24 23 22 21 20 19 18 18
11 12 13 15 16 17 18 20 21 23 26 30 35 39 43 44 44 44 43 42 41 38 37 37 37 36 33 29 28 27 25 23 22 21 21 20 19 18
10 12 14 15 16 17 18 20 22 23 25 29 33 39 43 45 45 46 45 44 42 40 38 37 36 35 32 30 28 27 25 24 23 22 22 21 21 21
Wind_Direction
256 255 254 251 247 240 233 228 225 223 221 221 219 217 215 213 213 212 214 215 217 222 226 233 240 247 254 259 261 262 262 262 261 261 260 260 260 261
254 252 251 250 249 244 237 231 226 224 223 222 220 218 216 214 214 214 215 216 217 220 226 232 239 247 255 262 267 269 269 268 266 265 264 264 263 263
252 249 248 247 245 243 238 232 228 225 224 223 222 220 218 217 215 216 216 216 218 221 226 231 238 246 253 262 270 275 276 275 273 270 269 268 268 267
250 247 245 244 242 241 239 234 229 226 225 224 223 222 221 219 217 217 217 217 219 222 226 231 238 246 254 262 270 276 279 280 278 275 272 271 271 270
249 245 243 241 239 238 237 235 232 228 226 225 224 223 222 221 220 219 218 218 220 223 228 232 238 246 253 260 268 275 279 280 280 278 276 274 272 271
249 244 240 239 237 237 235 234 233 229 226 225 225 225 223 222 221 220 220 220 221 224 228 232 238 244 250 257 265 274 279 280 280 280 278 276 274 271
247 243 238 236 235 235 234 233 232 231 229 226 226 225 224 223 222 221 221 221 222 224 227 230 236 242 247 255 264 272 277 280 280 279 278 276 274 270
245 240 237 234 233 232 233 232 231 231 231 228 226 225 225 224 223 222 222 222 223 224 226 229 234 240 245 252 261 270 278 279 278 277 277 276 274 272
241 237 235 233 231 230 231 231 230 230 230 229 228 225 225 224 223 222 222 222 223 223 225 228 231 237 243 250 258 267 276 279 277 274 273 274 274 271
238 234 232 231 230 229 229 229 230 229 229 229 229 227 226 224 222 222 222 221 222 222 224 227 230 235 240 246 254 262 271 275 275 272 271 272 271 269
234 229 227 228 228 227 227 227 227 227 227 227 227 227 226 224 224 223 223 222 222 222 223 225 228 233 238 243 250 258 266 270 272 270 270 270 269 268
226 222 221 223 223 223 224 225 225 225 226 226 224 224 224 222 222 223 222 222 220 220 222 224 227 231 236 240 246 253 261 266 269 270 269 267 268 267
217 215 218 220 221 221 222 222 223 225 224 224 224 223 223 223 223 224 223 223 221 220 221 222 225 229 233 238 243 250 257 263 267 268 268 266 265 265
209 210 212 214 217 219 219 219 221 222 222 223 223 223 223 222 221 219 220 220 222 221 220 220 223 227 231 236 241 247 253 259 263 264 264 264 264 263
201 204 207 210 212 214 215 215 217 218 220 220 221 221 222 222 222 220 221 220 220 220 219 220 222 225 230 235 239 244 249 254 259 261 262 264 264 262
190 196 201 202 203 207 208 210 212 214 216 216 217 218 218 218 220 221 222 220 219 219 220 220 221 224 228 232 236 240 245 250 256 259 262 264 263 261
189 192 195 197 198 200 203 206 208 211 213 212 213 216 217 217 217 217 220 222 223 221 219 219 220 223 227 231 235 239 243 248 254 258 262 264 263 261
190 189 190 191 193 196 199 202 203 206 207 208 208 211 214 217 218 219 220 223 224 222 219 218 219 223 226 230 233 238 242 247 253 258 260 264 262 259
183 184 185 187 188 191 193 195 197 200 203 204 205 207 210 213 216 217 219 221 222 221 219 218 219 222 226 229 232 236 241 246 252 256 258 262 259 254
182 184 185 186 188 190 191 193 194 197 200 202 202 203 205 207 210 213 215 219 221 221 222 221 219 221 225 228 232 236 241 247 251 254 256 257 253 249
195 195 195 194 192 191 192 193 195 197 199 200 200 200 201 203 205 207 209 212 215 216 218 217 216 220 224 227 232 237 242 246 248 252 252 249 245 242
206 209 211 211 208 205 204 204 202 202 202 201 199 198 198 198 199 201 205 206 208 210 212 213 216 219 223 227 232 236 241 244 247 248 248 245 239 235
215 217 217 216 215 215 214 214 213 210 207 202 200 199 197 196 195 197 199 201 204 207 209 212 215 217 221 225 231 236 239 242 244 245 244 241 238 237
Height
5728 5731 5734 5737 5741 5745 5749 5756 5762 5769 5775 5780 5785 5791 5796 5802 5807 5812 5816 5820 5823 5827 5829 5832 5835 5837 5838 5840 5841 5843 5845 5846 5848 5850 5852 5853 5855 5857
5716 5719 5723 5726 5731 5735 5740 5747 5753 5760 5766 5771 5777 5783 5788 5795 5800 5805 5809 5814 5817 5821 5824 5827 5830 5832 5834 5835 5837 5838 5839 5841 5842 5844 5845 5847 5849 5851
5700 5705 5710 5715 5720 5725 5730 5736 5743 5750 5756 5763 5769 5775 5780 5787 5792 5798 5803 5807 5811 5815 5819 5822 5825 5827 5829 5831 5832 5833 5834 5835 5836 5838 5839 5841 5842 5844
5682 5688 5694 5700 5706 5712 5718 5725 5732 5739 5746 5753 5759 5766 5771 5778 5784 5790 5796 5801 5805 5809 5813 5817 5819 5822 5824 5826 5827 5828 5829 5830 5831 5832 5833 5835 5836 5837
5661 5668 5675 5682 5690 5697 5704 5712 5720 5727 5735 5742 5749 5756 5762 5769 5776 5782 5788 5794 5798 5803 5807 5811 5814 5817 5819 5821 5822 5823 5824 5825 5825 5826 5827 5828 5830 5831
5637 5645 5654 5663 5672 5680 5688 5697 5706 5714 5722 5731 5738 5745 5753 5760 5766 5773 5780 5786 5791 5796 5801 5805 5808 5811 5813 5815 5817 5818 5818 5819 5820 5821 5822 5823 5824 5825
5614 5622 5632 5642 5651 5661 5671 5681 5691 5700 5709 5718 5726 5734 5742 5750 5758 5764 5771 5777 5783 5789 5794 5798 5802 5805 5807 5810 5811 5812 5813 5813 5814 5815 5816 5817 5818 5819
5592 5600 5610 5620 5631 5642 5653 5663 5675 5685 5695 5705 5714 5723 5731 5740 5747 5754 5762 5769 5775 5781 5786 5791 5796 5799 5801 5803 5805 5807 5807 5808 5809 5810 5811 5812 5813 5814
5571 5579 5589 5600 5611 5623 5635 5646 5658 5669 5681 5692 5702 5711 5720 5729 5737 5744 5752 5759 5766 5772 5779 5784 5789 5792 5795 5797 5799 5801 5802 5802 5803 5804 5805 5807 5808 5809
5553 5562 5572 5583 5594 5606 5618 5629 5642 5654 5667 5679 5691 5700 5708 5716 5725 5733 5740 5749 5756 5764 5771 5777 5781 5785 5788 5791 5793 5795 5796 5797 5798 5799 5800 5801 5803 5804
5537 5546 5557 5568 5579 5591 5604 5616 5628 5639 5650 5663 5676 5686 5696 5705 5714 5722 5731 5739 5747 5755 5762 5769 5774 5777 5781 5784 5787 5789 5790 5791 5792 5794 5795 5796 5797 5799
5525 5535 5546 5556 5566 5577 5589 5600 5613 5625 5637 5649 5662 5674 5684 5694 5703 5712 5720 5729 5737 5745 5753 5760 5765 5770 5774 5777 5780 5782 5784 5785 5787 5788 5789 5791 5792 5793
5518 5527 5536 5546 5556 5567 5577 5588 5599 5611 5623 5636 5649 5661 5673 5683 5693 5701 5710 5719 5728 5737 5744 5751 5757 5762 5767 5771 5773 5776 5778 5780 5781 5783 5784 5785 5787 5788
5514 5522 5530 5539 5548 5558 5568 5578 5588 5600 5612 5624 5637 5649 5662 5673 5682 5691 5699 5709 5717 5726 5734 5742 5749 5755 5760 5764 5767 5769 5772 5773 5775 5777 5779 5780 5781 5783
5512 5519 5526 5533 5541 5550 5560 5570 5580 5591 5603 5615 5627 5639 5650 5661 5671 5680 5690 5698 5708 5716 5725 5733 5740 5746 5752 5757 5760 5763 5766 5767 5769 5771 5773 5774 5776 5777
5512 5518 5524 5530 5537 5545 5554 5563 5573 5583 5594 5605 5616 5628 5639 5651 5661 5671 5681 5690 5698 5707 5716 5724 5732 5738 5744 5749 5754 5757 5759 5762 5763 5765 5767 5769 5770 5772
5513 5518 5523 5529 5535 5542 5550 5558 5566 5576 5586 5596 5607 5618 5630 5641 5652 5661 5672 5681 5690 5700 5708 5716 5724 5730 5736 5742 5747 5750 5753 5756 5757 5759 5761 5763 5764 5766
5515 5518 5523 5528 5534 5540 5547 5553 5561 5569 5578 5587 5598 5609 5621 5632 5642 5653 5663 5673 5683 5692 5701 5709 5716 5724 5730 5736 5740 5744 5747 5749 5751 5753 5755 5757 5758 5760
5516 5519 5523 5528 5533 5539 5545 5551 5557 5564 5572 5580 5590 5601 5612 5623 5634 5645 5655 5666 5675 5685 5694 5701 5709 5717 5724 5729 5733 5737 5740 5743 5745 5747 5749 5751 5752 5754
5518 5521 5524 5528 5533 5538 5543 5548 5554 5560 5567 5575 5583 5593 5603 5615 5626 5637 5648 5659 5669 5678 5686 5695 5703 5711 5717 5722 5726 5730 5734 5736 5738 5741 5743 5744 5746 5748
5519 5522 5525 5529 5532 5537 5541 5546 5551 5557 5563 5569 5577 5587 5597 5607 5618 5630 5641 5651 5661 5671 5680 5689 5697 5703 5709 5714 5720 5724 5727 5730 5732 5734 5736 5739 5741 5743
5520 5522 5525 5528 5531 5535 5539 5543 5548 5553 5559 5565 5572 5581 5591 5601 5612 5623 5634 5644 5654 5664 5673 5681 5688 5695 5702 5708 5713 5717 5720 5723 5725 5728 5731 5733 5735 5738
5519 5521 5524 5526 5529 5532 5536 5540 5544 5549 5554 5560 5567 5575 5584 5594 5605 5616 5627 5637 5647 5657 5666 5674 5681 5689 5696 5701 5706 5710 5713 5716 5719 5722 5725 5727 5729 5732